• In Kazakhstan
  • List of Countries
  • For 7 days
  • Water Temperature
  • Satellite Maps
  • Weather Map
  • News
  • Weather Widgets
  • user-avatar
    Login

    Hourly Weather Owensboro

    Today, 19 September, Tuesday

    Time Temperature Precipitation Wind Pressure Humidity
    00:00 +22°C° 0 mm 1 mps 750 mmHg 90%
    01:00 +22°C° 0.9 mm 1 mps 750 mmHg 91%
    02:00 +22°C° 0.9 mm 1 mps 750 mmHg 93%
    03:00 +22°C° 0.9 mm 1 mps 749 mmHg 94%
    04:00 +21°C° 0.3 mm 1 mps 749 mmHg 95%
    05:00 +21°C° 0.3 mm 1 mps 750 mmHg 95%
    06:00 +21°C° 0.3 mm 1 mps 750 mmHg 96%
    07:00 +23°C° 0 mm 1 mps 750 mmHg 91%
    08:00 +24°C° 0 mm 1 mps 750 mmHg 85%
    09:00 +26°C° 0 mm 2 mps 750 mmHg 80%
    10:00 +27°C° 1 mm 2 mps 750 mmHg 76%
    11:00 +28°C° 1 mm 2 mps 750 mmHg 72%
    12:00 +30°C° 1 mm 2 mps 749 mmHg 68%
    13:00 +30°C° 0.4 mm 2 mps 749 mmHg 67%
    14:00 +30°C° 0.4 mm 2 mps 749 mmHg 65%
    15:00 +30°C° 0.4 mm 2 mps 748 mmHg 64%
    16:00 +29°C° 0.2 mm 1 mps 748 mmHg 69%
    17:00 +27°C° 0.2 mm 1 mps 748 mmHg 74%
    18:00 +26°C° 0.2 mm 1 mps 748 mmHg 79%
    19:00 +25°C° 0 mm 1 mps 749 mmHg 82%
    20:00 +25°C° 0 mm 1 mps 749 mmHg 84%
    21:00 +24°C° 0 mm 2 mps 749 mmHg 87%
    22:00 +24°C° 0 mm 2 mps 749 mmHg 89%
    23:00 +23°C° 0 mm 2 mps 749 mmHg 91%

    Tomorrow, 20 September, Wednesday

    Time Temperature Precipitation Wind Pressure Humidity
    00:00 +23°C° 0 mm 2 mps 749 mmHg 92%
    01:00 +23°C° 0 mm 2 mps 749 mmHg 93%
    02:00 +22°C° 0 mm 1 mps 749 mmHg 94%
    03:00 +22°C° 0 mm 1 mps 749 mmHg 94%
    04:00 +21°C° 0 mm 2 mps 749 mmHg 95%
    05:00 +21°C° 0 mm 2 mps 750 mmHg 95%
    06:00 +21°C° 0 mm 2 mps 750 mmHg 95%
    07:00 +24°C° 0 mm 2 mps 750 mmHg 89%
    08:00 +26°C° 0 mm 2 mps 750 mmHg 83%
    09:00 +28°C° 0 mm 2 mps 751 mmHg 77%
    10:00 +29°C° 0.5 mm 2 mps 751 mmHg 73%
    11:00 +30°C° 0.5 mm 2 mps 750 mmHg 68%
    12:00 +32°C° 0.5 mm 2 mps 750 mmHg 64%
    13:00 +32°C° 0.1 mm 2 mps 750 mmHg 62%
    14:00 +32°C° 0.1 mm 2 mps 750 mmHg 60%
    15:00 +32°C° 0.1 mm 2 mps 749 mmHg 58%
    16:00 +31°C° 0 mm 2 mps 750 mmHg 64%
    17:00 +29°C° 0 mm 2 mps 750 mmHg 71%
    18:00 +27°C° 0 mm 2 mps 750 mmHg 77%
    19:00 +27°C° 0 mm 2 mps 750 mmHg 79%
    20:00 +26°C° 0 mm 2 mps 751 mmHg 81%
    21:00 +25°C° 0 mm 2 mps 751 mmHg 83%
    22:00 +25°C° 0 mm 2 mps 751 mmHg 85%
    23:00 +24°C° 0 mm 2 mps 751 mmHg 87%

    Day after tomorrow, 21 September, Thursday

    Time Temperature Precipitation Wind Pressure Humidity
    00:00 +24°C° 0 mm 2 mps 751 mmHg 88%
    01:00 +24°C° 0.1 mm 2 mps 751 mmHg 90%
    02:00 +23°C° 0.1 mm 2 mps 751 mmHg 91%
    03:00 +23°C° 0.1 mm 2 mps 751 mmHg 93%
    04:00 +23°C° 0.4 mm 1 mps 752 mmHg 93%
    05:00 +23°C° 0.4 mm 1 mps 752 mmHg 94%
    06:00 +23°C° 0.4 mm 1 mps 752 mmHg 94%
    07:00 +24°C° 0.1 mm 1 mps 752 mmHg 90%
    08:00 +26°C° 0.1 mm 2 mps 753 mmHg 86%
    09:00 +27°C° 0.1 mm 2 mps 753 mmHg 82%
    10:00 +29°C° 0 mm 2 mps 753 mmHg 76%
    11:00 +30°C° 0 mm 2 mps 752 mmHg 70%
    12:00 +32°C° 0 mm 2 mps 752 mmHg 64%
    13:00 +32°C° 0 mm 1 mps 752 mmHg 62%
    14:00 +33°C° 0 mm 1 mps 751 mmHg 60%
    15:00 +33°C° 0 mm 1 mps 751 mmHg 58%
    16:00 +31°C° 0 mm 1 mps 751 mmHg 63%
    17:00 +29°C° 0 mm 1 mps 751 mmHg 69%
    18:00 +28°C° 0 mm 1 mps 751 mmHg 74%
    19:00 +27°C° 0 mm 1 mps 751 mmHg 77%
    20:00 +26°C° 0 mm 1 mps 752 mmHg 79%
    21:00 +26°C° 0 mm 1 mps 752 mmHg 81%
    22:00 +25°C° 0 mm 1 mps 752 mmHg 83%
    23:00 +25°C° 0 mm 1 mps 752 mmHg 85%

    22 September, Friday

    Time Temperature Precipitation Wind Pressure Humidity
    00:00 +24°C° 0 mm 1 mps 752 mmHg 86%
    01:00 +24°C° 0 mm 1 mps 752 mmHg 87%
    02:00 +23°C° 0 mm 1 mps 752 mmHg 88%
    03:00 +23°C° 0 mm 1 mps 752 mmHg 89%
    04:00 +23°C° 0 mm 1 mps 752 mmHg 89%
    05:00 +22°C° 0 mm 1 mps 752 mmHg 89%
    06:00 +22°C° 0 mm 1 mps 752 mmHg 89%
    07:00 +24°C° 0 mm 1 mps 753 mmHg 82%
    08:00 +26°C° 0 mm 1 mps 753 mmHg 75%
    09:00 +29°C° 0 mm 2 mps 753 mmHg 67%
    10:00 +30°C° 0 mm 2 mps 753 mmHg 63%
    11:00 +31°C° 0 mm 2 mps 753 mmHg 58%
    12:00 +32°C° 0 mm 2 mps 752 mmHg 53%
    13:00 +32°C° 0 mm 2 mps 752 mmHg 53%
    14:00 +34°C° 0 mm 2 mps 751 mmHg 52%
    15:00 +34°C° 0 mm 2 mps 751 mmHg 52%
    16:00 +31°C° 0 mm 1 mps 751 mmHg 58%
    17:00 +29°C° 0 mm 1 mps 751 mmHg 63%
    18:00 +27°C° 0 mm 1 mps 751 mmHg 69%
    19:00 +27°C° 0 mm 1 mps 751 mmHg 72%
    20:00 +26°C° 0 mm 1 mps 751 mmHg 75%
    21:00 +25°C° 0 mm 1 mps 751 mmHg 77%
    22:00 +25°C° 0 mm 1 mps 751 mmHg 79%
    23:00 +24°C° 0 mm 1 mps 751 mmHg 81%

    23 September, Saturday

    Time Temperature Precipitation Wind Pressure Humidity
    00:00 +24°C° 0 mm 1 mps 751 mmHg 82%
    01:00 +23°C° 0 mm 1 mps 751 mmHg 84%
    02:00 +23°C° 0 mm 1 mps 751 mmHg 86%
    03:00 +23°C° 0 mm 1 mps 751 mmHg 87%
    04:00 +22°C° 0 mm 1 mps 752 mmHg 88%
    05:00 +22°C° 0 mm 1 mps 752 mmHg 88%
    06:00 +22°C° 0 mm 1 mps 752 mmHg 89%
    07:00 +24°C° 0 mm 1 mps 753 mmHg 82%
    08:00 +27°C° 0 mm 1 mps 753 mmHg 75%
    09:00 +29°C° 0 mm 1 mps 753 mmHg 68%
    10:00 +30°C° 0.1 mm 1 mps 753 mmHg 63%
    11:00 +32°C° 0.1 mm 1 mps 753 mmHg 58%
    12:00 +33°C° 0.1 mm 1 mps 752 mmHg 53%
    13:00 +33°C° 0 mm 1 mps 752 mmHg 52%
    14:00 +33°C° 0 mm 1 mps 752 mmHg 52%
    15:00 +34°C° 0 mm 2 mps 751 mmHg 51%
    16:00 +31°C° 0 mm 1 mps 751 mmHg 57%
    17:00 +29°C° 0 mm 1 mps 751 mmHg 63%
    18:00 +27°C° 0 mm 1 mps 751 mmHg 70%
    19:00 +27°C° 0 mm 1 mps 751 mmHg 72%
    20:00 +26°C° 0 mm 1 mps 751 mmHg 75%
    21:00 +25°C° 0 mm 1 mps 752 mmHg 77%
    22:00 +25°C° 0 mm 1 mps 752 mmHg 80%
    23:00 +24°C° 0 mm 1 mps 752 mmHg 82%

    24 September, Sunday

    Time Temperature Precipitation Wind Pressure Humidity
    00:00 +22°C° 0 mm 0 mps 752 mmHg 84%
    01:00 +24°C° 0 mm 1 mps 752 mmHg 85%
    02:00 +23°C° 0 mm 1 mps 752 mmHg 86%
    03:00 +23°C° 0 mm 1 mps 752 mmHg 87%
    04:00 +23°C° 0 mm 1 mps 752 mmHg 88%
    05:00 +23°C° 0 mm 1 mps 752 mmHg 89%
    06:00 +23°C° 0 mm 1 mps 752 mmHg 90%
    07:00 +25°C° 0 mm 1 mps 752 mmHg 82%
    08:00 +27°C° 0 mm 1 mps 752 mmHg 75%
    09:00 +29°C° 0 mm 1 mps 753 mmHg 68%
    10:00 +30°C° 0.4 mm 1 mps 752 mmHg 64%
    11:00 +31°C° 0.4 mm 1 mps 752 mmHg 61%
    12:00 +32°C° 0.4 mm 2 mps 752 mmHg 57%
    13:00 +32°C° 0.3 mm 1 mps 751 mmHg 56%
    14:00 +32°C° 0.3 mm 1 mps 751 mmHg 55%
    15:00 +32°C° 0.3 mm 1 mps 751 mmHg 54%
    16:00 +30°C° 0 mm 1 mps 750 mmHg 59%
    17:00 +29°C° 0 mm 1 mps 750 mmHg 64%
    18:00 +25°C° 0 mm 0 mps 750 mmHg 69%
    19:00 +24°C° 0 mm 0 mps 751 mmHg 71%
    20:00 +24°C° 0 mm 0 mps 751 mmHg 73%
    21:00 +23°C° 0 mm 0 mps 751 mmHg 75%
    22:00 +23°C° 0 mm 0 mps 751 mmHg 77%
    23:00 +24°C° 0 mm 1 mps 751 mmHg 79%
    Show more